Bad Axe, MI

1:39 AM EDT on May 30, 2017 (GMT -0400)
Huron County Memorial

Weather History for KBAX - April, 2014

Change the Weather History Date:

Monday, April 21, 2014

  Actual Average (KP58) Record (KP58)
Temperature  
Mean Temperature 64 °F -  
Max Temperature 77 °F 50 °F 75 °F (2004)
Min Temperature 50 °F 35 °F 26 °F (2013)
Degree Days  
Heating Degree Days 2    
Growing Degree Days 14 (Base 50)    
Moisture  
Dew Point 43 °F    
Average Humidity 55    
Maximum Humidity 97    
Minimum Humidity 28    
Precipitation  
Precipitation 0.00 in - - ()
Sea Level Pressure  
Sea Level Pressure 29.89 in    
Wind  
Wind Speed 6 mph (SSW)    
Max Wind Speed 17 mph    
Max Gust Speed 25 mph    
Visibility 10 miles    
Events Rain    
Averages and records for this station are not official NWS values.
T = Trace of Precipitation, MM = Missing Value Source: NWS Daily Summary

Daily Weather History Graph

Daily Weather History Graph

Search for Another Location

Airport or City:

Trip Planner

Search our weather history database for the weather conditions in past years. The results will help you decide how hot, cold, wet, or windy it might be!

Date:

Astronomy

Apr. 21, 2014 Rise Set
Actual Time 6:39 AM EDT 8:22 PM EDT
Civil Twilight 6:08 AM EDT 8:53 PM EDT
Nautical Twilight 5:31 AM EDT 9:30 PM EDT
Astronomical Twilight 4:51 AM EDT 10:10 PM EDT
Moon 1:54 AM EDT (4/21) 12:02 PM EDT (4/21)
Length of Visible Light 14h 44m
Length of Day
13h 43m
Waning Gibbous, 58% of the Moon is Illuminated
Apr 21
Waning Gibbous
Apr 22
Last Quarter
Apr 29
New
May 6
First Quarter
May 14
Full

Hourly Weather History & Observations

Time (EDT) Temp. Dew Point Humidity Pressure Visibility Wind Dir Wind Speed Gust Speed Precip Events Conditions
12:17 AM 55.2 °F 38.7 °F 54% 30.08 in 10.0 mi Calm Calm - N/A   Scattered Clouds
12:37 AM 54.5 °F 37.4 °F 52% 30.08 in 10.0 mi SSE 4.6 mph - N/A   Mostly Cloudy
12:57 AM 54.9 °F 36.9 °F 51% 30.07 in 10.0 mi SSE 3.5 mph - N/A   Mostly Cloudy
1:17 AM 54.5 °F 37.6 °F 53% 30.07 in 10.0 mi South 4.6 mph - N/A   Mostly Cloudy
1:37 AM 54.3 °F 38.3 °F 55% 30.06 in 10.0 mi South 4.6 mph - N/A   Overcast
1:57 AM 54.0 °F 39.0 °F 57% 30.06 in 10.0 mi South 4.6 mph - N/A   Overcast
2:17 AM 54.1 °F 39.6 °F 58% 30.05 in 10.0 mi South 4.6 mph - N/A   Overcast
2:37 AM 54.3 °F 39.2 °F 57% 30.05 in 10.0 mi South 3.5 mph - N/A   Overcast
2:57 AM 54.3 °F 39.4 °F 57% 30.05 in 10.0 mi South 4.6 mph - N/A   Overcast
3:17 AM 53.8 °F 39.4 °F 58% 30.04 in 10.0 mi South 3.5 mph - N/A   Overcast
3:37 AM 54.0 °F 39.0 °F 57% 30.04 in 10.0 mi South 5.8 mph - N/A   Overcast
3:57 AM 52.7 °F 40.5 °F 63% 30.03 in 10.0 mi South 8.1 mph - N/A   Overcast
4:17 AM 52.7 °F 40.5 °F 63% 30.02 in 10.0 mi South 4.6 mph - N/A   Overcast
4:37 AM 52.2 °F 40.6 °F 65% 30.02 in 10.0 mi South 4.6 mph - N/A   Overcast
4:57 AM 51.8 °F 40.3 °F 65% 30.02 in 10.0 mi South 5.8 mph - N/A   Overcast
5:17 AM 51.8 °F 40.1 °F 64% 30.01 in 10.0 mi South 4.6 mph - N/A   Mostly Cloudy
5:37 AM 52.7 °F 39.0 °F 60% 30.00 in 10.0 mi SSE 5.8 mph - N/A   Mostly Cloudy
5:57 AM 52.3 °F 38.8 °F 60% 30.00 in 10.0 mi South 5.8 mph - N/A   Mostly Cloudy
6:17 AM 51.1 °F 39.6 °F 65% 30.00 in 10.0 mi South 5.8 mph - N/A   Scattered Clouds
6:37 AM 50.9 °F 38.8 °F 63% 30.00 in 10.0 mi South 4.6 mph - N/A   Scattered Clouds
6:57 AM 50.2 °F 38.7 °F 65% 30.00 in 10.0 mi South 4.6 mph - N/A   Scattered Clouds
7:17 AM 50.5 °F 39.0 °F 65% 30.00 in 10.0 mi South 3.5 mph - N/A   Clear
7:37 AM 53.1 °F 38.5 °F 58% 29.99 in 10.0 mi SSW 8.1 mph - N/A   Scattered Clouds
7:57 AM 53.6 °F 38.8 °F 57% 29.99 in 10.0 mi South 5.8 mph - N/A   Mostly Cloudy
8:17 AM 54.5 °F 38.5 °F 55% 29.98 in 10.0 mi South 6.9 mph - N/A   Mostly Cloudy
8:38 AM 56.7 °F 38.3 °F 50% 29.98 in 10.0 mi South 8.1 mph - N/A   Overcast
8:57 AM 57.9 °F 37.4 °F 46% 29.97 in 10.0 mi SSW 9.2 mph - N/A   Overcast
9:17 AM 59.4 °F 36.1 °F 42% 29.96 in 10.0 mi SSW 9.2 mph - N/A   Overcast
9:57 AM 60.8 °F 37.8 °F 42% 29.95 in 10.0 mi SSW 9.2 mph - N/A   Mostly Cloudy
10:17 AM 63.9 °F 37.8 °F 38% 29.94 in 10.0 mi SSW 10.4 mph - N/A   Mostly Cloudy
10:38 AM 67.5 °F 38.7 °F 35% 29.92 in 10.0 mi SW 9.2 mph - N/A   Mostly Cloudy
10:57 AM 67.8 °F 38.8 °F 35% 29.92 in 10.0 mi SW 11.5 mph - N/A   Mostly Cloudy
11:16 AM 68.9 °F 38.8 °F 33% 29.91 in 10.0 mi SW 9.2 mph - N/A   Mostly Cloudy
11:37 AM 69.1 °F 40.5 °F 35% 29.91 in 10.0 mi WSW 9.2 mph - N/A   Mostly Cloudy
11:57 AM 69.3 °F 41.9 °F 37% 29.90 in 10.0 mi WSW 12.7 mph 16.1 mph N/A   Scattered Clouds
12:17 PM 69.1 °F 42.6 °F 38% 29.90 in 10.0 mi WSW 11.5 mph 19.6 mph N/A   Scattered Clouds
12:37 PM 70.9 °F 43.0 °F 37% 29.90 in 10.0 mi WSW 10.4 mph - N/A   Scattered Clouds
12:57 PM 71.1 °F 43.0 °F 36% 29.89 in 10.0 mi West 13.8 mph 20.7 mph N/A   Clear
1:18 PM 71.2 °F 43.7 °F 37% 29.88 in 10.0 mi WSW 11.5 mph 16.1 mph N/A   Scattered Clouds
1:37 PM 71.8 °F 44.4 °F 37% 29.87 in 10.0 mi WSW 10.4 mph - N/A   Mostly Cloudy
1:57 PM 71.4 °F 45.0 °F 39% 29.87 in 10.0 mi West 9.2 mph - N/A   Overcast
2:18 PM 70.9 °F 45.7 °F 40% 29.86 in 10.0 mi WSW 10.4 mph - N/A   Overcast
2:37 PM 72.9 °F 45.7 °F 38% 29.85 in 10.0 mi WSW 8.1 mph - N/A   Mostly Cloudy
2:57 PM 72.9 °F 46.6 °F 39% 29.84 in 10.0 mi WSW 9.2 mph - N/A   Mostly Cloudy
3:18 PM 73.6 °F 46.4 °F 38% 29.82 in 10.0 mi SW 10.4 mph - N/A   Overcast
3:37 PM 74.5 °F 46.9 °F 38% 29.81 in 10.0 mi SW 6.9 mph - N/A   Mostly Cloudy
3:57 PM 75.6 °F 47.5 °F 37% 29.79 in 10.0 mi SW 9.2 mph - N/A   Scattered Clouds
4:18 PM 76.1 °F 43.5 °F 31% 29.78 in 10.0 mi SW 12.7 mph 20.7 mph N/A   Mostly Cloudy
4:37 PM 76.6 °F 42.3 °F 29% 29.76 in 10.0 mi WSW 13.8 mph 23.0 mph N/A   Scattered Clouds
4:57 PM 77.0 °F 42.3 °F 29% 29.75 in 10.0 mi SW 12.7 mph 18.4 mph N/A   Scattered Clouds
5:18 PM 77.0 °F 41.0 °F 28% 29.75 in 10.0 mi SW 15.0 mph 25.3 mph N/A   Clear
5:37 PM 76.3 °F 40.6 °F 28% 29.74 in 10.0 mi SW 15.0 mph 19.6 mph N/A   Scattered Clouds
5:57 PM 75.6 °F 41.0 °F 29% 29.74 in 10.0 mi SW 16.1 mph 23.0 mph N/A   Mostly Cloudy
6:18 PM 65.8 °F 44.4 °F 46% 29.75 in 10.0 mi North 17.3 mph - N/A   Overcast
6:37 PM 61.2 °F 42.6 °F 51% 29.75 in 10.0 mi NNE 16.1 mph 20.7 mph N/A   Overcast
6:57 PM 61.0 °F 43.0 °F 52% 29.77 in 10.0 mi NNE 8.1 mph - N/A Rain Rain
7:17 PM 59.4 °F 46.8 °F 63% 29.77 in 10.0 mi North 5.8 mph - N/A Rain Light Rain
7:37 PM 58.1 °F 48.0 °F 69% 29.78 in 10.0 mi NNW 4.6 mph - N/A   Overcast
7:58 PM 57.0 °F 50.0 °F 77% 29.78 in 10.0 mi NNE 3.5 mph - N/A Rain Light Rain
8:17 PM 55.9 °F 50.0 °F 80% 29.78 in 10.0 mi Calm Calm - N/A Rain Rain
8:37 PM 55.4 °F 50.0 °F 82% 29.77 in 10.0 mi Calm Calm - N/A   Overcast
8:58 PM 54.5 °F 50.9 °F 88% 29.76 in 10.0 mi Calm Calm - N/A   Overcast
9:17 PM 55.2 °F 50.5 °F 84% 29.76 in 10.0 mi Calm Calm - N/A   Overcast
9:38 PM 54.9 °F 51.4 °F 88% 29.76 in 10.0 mi Calm Calm - N/A   Overcast
9:58 PM 54.7 °F 51.3 °F 88% 29.75 in 7.0 mi Calm Calm - N/A Rain Rain
10:17 PM 54.5 °F 51.6 °F 90% 29.75 in 5.0 mi SSW 4.6 mph - N/A Rain Light Rain
10:38 PM 54.5 °F 52.3 °F 92% 29.74 in 4.0 mi SSE 5.8 mph - N/A Rain Heavy Rain
10:57 PM 54.5 °F 52.7 °F 94% 29.74 in 5.0 mi South 5.8 mph - N/A Rain Rain
11:18 PM 55.0 °F 53.8 °F 96% 29.73 in 4.0 mi SSW 4.6 mph - N/A Rain Rain
11:38 PM 55.2 °F 54.1 °F 96% 29.72 in 4.0 mi SSW 9.2 mph - N/A Rain Rain
11:57 PM 55.6 °F 54.7 °F 97% 29.72 in 4.0 mi SW 10.4 mph - N/A Rain Rain